Location: Rock River
(41.7433°N, 105.9768°W)
Time: 18:20:35
(UTC+00:00)

N. Korean satellite - Visible Passes

Search period start: 25 January 2022 00:00
Search period end: 04 February 2022 00:00
Orbit: 447 x 491 km, 97.3° (Epoch: 25 January)

Date Brightness Start Highest point End Pass type
(mag) Time Alt. Az. Time Alt. Az. Time Alt. Az.
25 Jan 6.8 12:34:11 10° N 12:43:02 - SSW 12:37:10 50° NNW visible
26 Jan 10.4 00:44:14 10° W 00:44:42 10° W 00:45:10 10° W visible
26 Jan 7.4 12:05:02 10° NNE 12:13:32 - S 12:08:05 49° ENE visible
26 Jan 8.6 13:40:33 10° NW 13:41:15 10° WNW 13:41:57 10° WNW visible
27 Jan 9.0 11:36:21 10° NE 11:43:59 - SSE 11:39:01 23° E visible
27 Jan 7.8 13:09:28 10° NNW 13:12:19 22° WNW 13:13:05 20° W visible
28 Jan 10.0 11:09:27 10° E 11:09:51 10° E 11:09:58 10° E visible
28 Jan 6.7 12:39:44 10° N 12:43:15 49° WNW 12:44:02 41° WSW visible
29 Jan 6.9 12:10:27 10° NNE 12:14:04 65° E 12:15:01 44° SSE visible
30 Jan 8.7 11:41:37 10° NE 11:44:45 26° E 11:46:03 21° SE visible
30 Jan 7.9 13:15:04 10° NNW 13:17:42 19° WNW 13:20:07 11° WSW visible
31 Jan 9.9 11:13:51 10° ENE 11:15:16 12° E 11:16:41 10° ESE visible
31 Jan 6.9 12:45:10 10° N 12:48:37 42° WNW 12:51:17 15° SW visible
01 Feb 6.6 12:15:46 10° NNE 12:19:25 78° ESE 12:23:00 10° S visible
02 Feb 8.4 11:46:48 10° NNE 11:50:04 31° E 11:53:17 10° SSE visible
02 Feb 8.1 13:20:35 10° NNW 13:22:56 17° WNW 13:25:17 10° WSW visible
03 Feb 9.7 11:18:40 10° ENE 11:20:34 14° E 11:22:29 10° SE visible
03 Feb 7.1 12:50:30 10° N 12:53:51 36° WNW 12:57:09 10° SW visible
